Weather History for Deming, NM

Change the Weather History Date:

Monday, August 5, 2013

  Actual Average Record
Temperature  
Mean Temperature 83 °F 79 °F  
Max Temperature 95 °F 92 °F 104 °F (2003)
Min Temperature 71 °F 66 °F 53 °F (1971)
Cooling Degree Days 17    
Growing Degree Days 32 (Base 50)    
Moisture  
Dew Point 55 °F    
Average Humidity 43    
Maximum Humidity 61    
Minimum Humidity 24    
Precipitation  
Precipitation T in 0.11 in 0.68 in (1972)
Month to date precipitation 0.02 0.55  
Year to date precipitation 3.79 5.85  
Sea Level Pressure  
Sea Level Pressure 29.86 in    
Wind  
Wind Speed 11 mph (West)    
Max Wind Speed 22 mph    
Max Gust Speed 30 mph    
Visibility 10 miles    
Events Thunderstorm    
T = Trace of Precipitation, MM = Missing Value Source: NWS Daily Summary

Daily Weather History Graph

Daily Weather History Graph

Search for Another Location

Airport:

Trip Planner

Search our weather history database for the weather conditions in past years. The results will help you decide how hot, cold, wet, or windy it might be!

Date:

Astronomy

Aug. 05, 2013 Rise Set
Actual Time 6:28 AM MDT 8:04 PM MDT
Civil Twilight 6:02 AM MDT 8:31 PM MDT
Nautical Twilight 5:30 AM MDT 9:02 PM MDT
Astronomical Twilight 4:57 AM MDT 9:35 PM MDT
Moon 5:25 AM MDT (8/5) 7:09 PM MDT (8/5)
Length of Visible Light 14h 28m
Length of Day
13h 36m
Waning Crescent, 1% of the Moon is Illuminated
Aug 5
Waning Crescent
Aug 6
New
Aug 14
First Quarter
Aug 20
Full
Aug 28
Last Quarter

Hourly Weather History & Observations

Time (MDT) Temp. Heat Index Dew Point Humidity Pressure Visibility Wind Dir Wind Speed Gust Speed Precip Events Conditions
12:37 AM 82.4 °F 81.7 °F 55.4 °F 39% 30.09 in 10.0 mi South 6.9 mph - N/A Thunderstorm Thunderstorm
12:53 AM 81.0 °F 80.8 °F 55.9 °F 42% 29.82 in 10.0 mi SSW 12.7 mph 20.7 mph 0.00 in Thunderstorm Thunderstorm
1:45 AM 75.2 °F - 59.0 °F 57% 30.08 in 10.0 mi West 12.7 mph 21.9 mph N/A   Scattered Clouds
1:53 AM 75.0 °F - 57.9 °F 55% 29.81 in 10.0 mi West 13.8 mph - N/A   Partly Cloudy
2:53 AM 77.0 °F - 57.0 °F 50% 29.81 in 10.0 mi NNE 6.9 mph - N/A   Partly Cloudy
3:53 AM 78.1 °F - 55.9 °F 46% 29.83 in 10.0 mi WNW 5.8 mph - N/A   Mostly Cloudy
4:53 AM 75.0 °F - 57.9 °F 55% 29.87 in 10.0 mi WSW 5.8 mph - N/A   Overcast
5:53 AM 73.0 °F - 57.9 °F 59% 29.91 in 10.0 mi West 16.1 mph 23.0 mph N/A   Overcast
6:53 AM 71.1 °F - 57.9 °F 63% 29.92 in 10.0 mi WNW 18.4 mph - N/A   Clear
7:53 AM 73.0 °F - 57.9 °F 59% 29.92 in 10.0 mi NW 11.5 mph 19.6 mph N/A   Clear
8:53 AM 75.9 °F - 55.9 °F 50% 29.93 in 10.0 mi WNW 16.1 mph - N/A   Clear
9:53 AM 82.0 °F 81.4 °F 55.0 °F 39% 29.90 in 10.0 mi NW 16.1 mph 23.0 mph N/A   Clear
10:53 AM 86.0 °F 84.0 °F 53.1 °F 32% 29.88 in 10.0 mi NNW 10.4 mph - N/A   Partly Cloudy
11:53 AM 88.0 °F - 52.0 °F 29% 29.87 in 10.0 mi WSW 9.2 mph - N/A   Clear
12:53 PM 90.0 °F 87.5 °F 53.1 °F 28% 29.84 in 10.0 mi West 13.8 mph 19.6 mph N/A   Clear
1:53 PM 91.9 °F 89.5 °F 54.0 °F 27% 29.82 in 10.0 mi WNW 11.5 mph - N/A   Clear
2:53 PM 91.9 °F - 52.0 °F 26% 29.79 in 10.0 mi Calm Calm - N/A   Clear
3:53 PM 93.9 °F - 51.1 °F 23% 29.77 in 10.0 mi WSW 12.7 mph 19.6 mph N/A   Clear
4:53 PM 91.9 °F - 52.0 °F 26% 29.77 in 10.0 mi SW 16.1 mph 20.7 mph N/A   Clear
5:53 PM 91.0 °F - 50.0 °F 24% 29.76 in 10.0 mi West 12.7 mph - N/A   Clear
6:53 PM 89.1 °F - 51.1 °F 27% 29.78 in 10.0 mi WSW 16.1 mph - N/A   Clear
7:53 PM 84.9 °F 83.2 °F 53.1 °F 33% 29.79 in 10.0 mi West 12.7 mph - N/A   Clear
8:53 PM 82.0 °F 81.6 °F 55.9 °F 41% 29.82 in 10.0 mi West 11.5 mph - N/A   Clear
9:53 PM 80.1 °F 80.6 °F 57.9 °F 47% 29.84 in 10.0 mi WSW 11.5 mph - N/A   Clear
10:53 PM 78.1 °F - 60.1 °F 54% 29.85 in 10.0 mi West 12.7 mph 20.7 mph N/A   Clear
11:53 PM 75.0 °F - 59.0 °F 57% 29.86 in 10.0 mi West 5.8 mph - N/A   Clear